This demonstration page uses our WeatherBlox Daily Observations layout. Learn more.

Hourly Observations for August 4, 2016

Temp ( °F °C ) Dew Point ( °F °C ) Humidity (%) Winds ( mph kmh ) Pressure ( in mb ) Visibility ( mi km ) Precip ( " mm )
12:54 am 00:54 Clear 80 26.7 76 24.4 87 87 SSE 10 17 29.83 1010 10 16.0934 0 0
1:54 am 01:54 Clear 79 26.1 75 23.9 88 88 S 9 15 29.82 1010 10 16.0934 0 0
2:54 am 02:54 Clear 78 25.6 74 23.3 87 87 S 8 13 29.81 1010 10 16.0934 0 0
3:54 am 03:54 Clear 77 25 73 22.8 88 88 S 8 13 29.8 1009 10 16.0934 0 0
4:54 am 04:54 Clear 76 24.4 72 22.2 88 88 S 8 13 29.78 1008 10 16.0934 0 0
5:54 am 05:54 Clear 74 23.3 71 21.7 91 91 S 7 11 29.78 1009 10 16.0934 0 0
6:54 am 06:54 Sunny 75 23.9 71 21.7 88 88 Calm 29.8 1009 10 16.0934 0 0
7:54 am 07:54 Sunny 78 25.6 72 22.2 82 82 SSE 5 7 29.81 1009 10 16.0934 0 0
8:54 am 08:54 Sunny 82 27.8 72 22.2 72 72 S 10 17 29.8 1009 10 16.0934 0 0
9:54 am 09:54 Sunny 85 29.4 73 22.8 68 68 SSW 13 20 29.8 1009 10 16.0934 0 0
10:54 am 10:54 Sunny 87 30.6 74 23.3 65 65 SSW 8 13 29.8 1009 10 16.0934 0 0
11:54 am 11:54 Mostly Sunny 90 32.2 74 23.3 59 59 W 9 15 29.82 1010 10 16.0934 0 0
12:54 pm 12:54 Sunny 92 33.3 73 22.8 54 54 W 7 11 29.81 1010 10 16.0934 0 0
1:54 pm 13:54 Mostly Sunny 94 34.4 74 23.3 52 52 VRB 7 11 29.81 1010 10 16.0934 0 0
2:54 pm 14:54 Mostly Cloudy 91 32.8 77 25 64 64 SSW 9 15 29.82 1010 10 16.0934 0 0
3:54 pm 15:54 Cloudy 92 33.3 76 24.4 60 60 NNW 9 15 29.81 1010 10 16.0934 0 0
4:30 pm 16:30 Cloudy with Thunderstorms 90 32.2 77 25 66 66 NW 8 13 29.77 1008 10 16.0934 0 0
4:54 pm 16:54 Cloudy with Thunderstorms 88 31.1 77 25 70 70 NE 8 13 29.81 1010 10 16.0934 0 0
5:18 pm 17:18 Mostly Cloudy with Nearby Thunderstorms 84 29 73 23 70 70 E 10 17 29.83 1010 10 16.0934 0 0
5:33 pm 17:33 Cloudy with Nearby Thunderstorms 85 29.4 75 23.9 72 72 ENE 5 7 29.83 1010 10 16.0934 0 0
5:54 pm 17:54 Cloudy with Thunderstorms 84 28.9 76 24.4 77 77 NE 8 13 29.84 1010 10 16.0934 0 0
6:54 pm 18:54 Cloudy with Heavy Thunderstorms 73 22.8 70 21.1 90 90 WSW 30 48 29.91 1013 1.25 2.011675 0.01 0.254
6:58 pm 18:58 Cloudy with Heavy Thunderstorms 72 22 70 21 94 94 WSW 24 39 29.91 1013 0.75 1.207005 0 0
7:05 pm 19:05 Cloudy with Heavy Thunderstorms 72 22.2 67 19.4 84 84 NNW 15 24 29.91 1013 1 1.60934 0.48 12.192
7:10 pm 19:10 Cloudy with Heavy Thunderstorms 72 22 66 19 83 83 N 16 26 29.91 1013 1.25 2.011675 0 0
7:26 pm 19:26 Cloudy with Thunderstorms 72 22 66 19 83 83 NNW 14 22 29.88 1012 2.5 4.02335 0 0
7:46 pm 19:46 Cloudy with Thunderstorms 72 22 68 20 88 88 N 9 15 29.85 1011 4 6.43736 0 0
7:54 pm 19:54 Mostly Cloudy with Nearby Thunderstorms 72 22.2 69 20.6 91 91 N 9 15 29.86 1011 7 11.26538 0.77 19.558
8:09 pm 20:09 Mostly Sunny 73 23 70 21 89 89 NW 13 20 29.85 1011 10 16.0934 0 0
8:54 pm 20:54 Clear 73 22.8 69 20.6 87 87 N 10 17 29.88 1012 10 16.0934 0 0.0254
9:54 pm 21:54 Mostly Clear 71 21.7 66 18.9 84 84 N 10 17 29.92 1013 10 16.0934 0 0
10:54 pm 22:54 Mostly Clear 72 22.2 64 17.8 76 76 NNW 3 6 29.96 1015 10 16.0934 0 0
11:54 pm 23:54 Mostly Clear 72 22.2 63 17.2 73 73 NNW 10 17 29.94 1014 10 16.0934 0 0

Powered by AerisWeather